Zurück zum Katalog

COSMOS 385

AktivMilitärLEO
NORAD 4799·PAYLOAD·🇷🇺 Russia

Gestartet Dec 12, 1970 von Plesetsk Cosmodrome

Loading…

Nächste Überflüge

TLE

Source: Space-Track
1 04799U 70108A   26218.68789072 -.00000008  00000-0  14362-4 0  9990
2 04799  74.0231 305.5452 0004534 246.1918 266.8314 13.76983947795502

Verfolge COSMOS 385 in Echtzeit mit AllMySat

Download on the App Store